Temp
17 17 17 17 17 17 16 16 16 16 16 15 15 15 15 15 15 15 15 15 15 15 15 14 14 14 14 14 14 14 15 15 15 15 14 14 14 14 14 14 14 15 15 15 15 14 14 14 14 13 13 13 13 13 13 13 13 13 12 12 12 11 11 11 11 11 11 11 10
17 17 17 17 17 17 16 16 16 16 16 15 15 15 15 15 16 15 15 15 15 15 15 15 15 15 14 14 14 15 15 15 15 15 15 14 14 14 14 14 14 14 15 15 14 14 14 13 13 13 13 13 13 13 13 13 12 12 12 12 12 11 11 11 11 10 10 10 10
17 17 17 17 17 17 16 16 16 16 16 15 15 15 16 16 16 16 15 15 15 15 15 15 15 15 15 14 14 15 15 15 15 15 15 15 15 14 14 14 14 14 14 14 14 14 13 13 13 13 13 13 13 12 12 12 12 12 12 12 11 11 11 10 10 10 10 9 9
17 17 17 17 17 17 16 16 16 16 16 15 15 15 16 16 16 16 15 15 15 15 15 15 15 15 15 15 14 14 15 15 15 15 15 15 15 14 14 14 14 14 14 14 13 13 13 12 12 12 12 12 12 12 12 12 12 12 11 11 11 10 10 10 9 9 9 8 8
17 17 17 17 17 17 16 16 16 16 16 15 15 15 15 16 16 16 15 15 15 15 15 15 15 15 15 15 15 14 14 14 14 14 14 15 14 14 14 14 13 13 13 13 13 12 12 12 12 12 12 12 12 12 12 12 11 11 11 10 10 10 10 9 9 8 8 8 8
17 17 17 17 17 17 16 16 16 16 16 15 15 15 15 15 15 15 15 15 15 15 15 15 15 15 15 15 15 14 14 14 14 14 14 14 14 14 14 13 13 13 13 13 12 12 12 12 12 12 12 12 12 11 11 11 11 11 10 10 9 9 9 8 8 8 8 8 8
18 17 17 17 17 17 16 16 16 16 16 15 15 15 15 15 15 15 15 15 15 15 15 15 15 15 15 15 14 14 14 14 14 14 14 14 14 14 13 13 13 13 13 12 12 12 12 12 12 11 11 11 11 11 11 11 11 10 10 9 8 8 8 8 8 8 8 7 7
18 17 17 17 17 17 16 16 16 16 16 15 15 16 16 15 15 15 15 15 15 15 15 15 15 15 15 15 14 14 14 14 14 14 14 14 13 13 13 13 13 12 12 12 12 12 12 12 11 11 11 11 10 10 10 10 10 10 9 8 8 8 7 7 7 7 7 7 7
18 17 17 17 17 17 17 16 16 16 16 15 16 16 16 16 16 15 15 15 15 15 15 15 15 15 15 14 14 14 14 14 14 14 14 13 13 13 13 13 12 12 12 12 12 12 12 11 11 11 10 10 10 10 10 10 10 10 9 8 7 7 7 7 7 7 7 6 6
18 17 17 17 17 17 17 16 16 16 16 16 16 16 16 16 16 16 15 15 15 15 15 15 14 14 14 14 14 14 14 14 14 14 13 13 13 13 13 12 12 12 12 12 12 12 11 11 11 10 10 10 10 10 9 9 9 9 8 7 7 7 6 6 6 6 6 6 5
18 17 17 17 17 17 16 16 16 16 16 16 16 16 16 16 16 15 15 15 15 15 15 14 14 14 14 14 14 14 14 14 14 13 13 13 13 13 12 12 12 12 12 11 11 11 11 11 10 10 10 10 9 9 9 9 9 8 8 7 7 6 6 6 6 6 5 5 5
18 17 17 17 17 17 16 16 16 16 16 16 16 16 15 15 15 15 15 15 15 15 14 14 14 14 14 14 14 14 14 14 13 13 13 13 13 12 12 12 12 12 11 11 11 11 11 11 10 10 9 9 9 8 8 8 8 8 7 7 6 6 6 5 5 5 5 5 4
18 17 17 17 17 16 16 16 16 16 16 16 15 15 15 15 15 15 15 15 15 14 14 14 14 14 14 14 14 14 13 13 13 13 13 12 12 12 12 12 11 11 11 11 11 11 11 10 10 10 9 9 8 8 8 8 8 8 7 6 6 6 5 5 5 5 4 4 4
17 17 17 17 16 16 16 16 15 15 15 15 15 15 15 15 15 15 15 14 14 14 14 14 14 14 14 14 14 13 13 13 13 13 12 12 12 12 11 11 11 11 10 10 10 10 10 10 10 9 9 8 8 8 8 8 8 7 7 6 6 5 5 5 4 4 4 4 4
17 17 17 16 16 16 16 15 15 15 15 15 15 15 15 15 15 14 14 14 14 14 14 14 14 14 14 14 13 13 13 13 13 13 12 12 12 11 11 11 10 10 10 10 10 10 10 10 9 9 9 8 8 8 7 7 7 7 6 6 5 5 5 4 4 4 4 4 3
17 17 16 16 16 16 15 15 15 15 15 15 15 15 14 14 14 14 14 14 14 14 14 14 13 13 13 13 13 13 13 13 13 12 12 12 11 11 10 10 10 10 10 10 9 9 9 9 9 9 9 8 8 7 7 7 6 6 6 5 5 5 4 4 4 4 4 3 3
17 17 16 16 16 15 15 15 15 14 14 14 14 14 14 14 14 14 14 14 14 14 14 13 13 13 13 13 13 13 13 13 12 12 11 11 11 10 10 10 10 10 10 9 9 9 9 9 9 9 8 8 7 7 7 6 6 5 5 5 4 4 4 3 3 3 3 3 3
17 16 16 16 16 15 15 15 14 14 14 14 14 14 14 14 14 14 14 14 14 14 13 13 13 13 13 13 13 12 12 12 12 11 11 10 10 10 10 10 10 9 9 9 9 9 9 8 8 8 8 7 7 7 6 6 5 5 4 4 4 3 3 3 3 3 3 3 3
17 16 16 16 15 15 15 14 14 14 14 14 14 14 14 14 14 14 14 14 14 14 13 13 13 13 12 12 12 12 12 12 11 10 10 10 10 10 10 9 9 9 9 9 9 9 9 8 8 8 7 7 6 6 6 6 5 4 4 3 3 3 3 3 3 3 3 3 3
16 16 16 16 15 15 14 14 14 14 14 14 14 14 14 14 14 14 14 13 13 13 13 13 13 12 12 12 12 11 11 11 10 10 10 10 10 9 9 9 9 9 9 9 9 9 8 8 8 7 7 7 6 6 5 5 4 3 3 3 3 3 3 3 3 3 2 2 2
16 16 16 15 15 15 14 14 14 14 14 14 14 14 13 13 14 14 13 13 13 13 13 13 12 12 12 12 11 11 10 10 10 9 9 9 9 9 9 9 9 9 9 9 9 8 8 7 7 7 7 6 6 5 5 4 3 3 3 3 2 2 2 2 2 2 2 2 2
16 15 15 15 15 14 14 14 14 14 14 13 13 13 13 13 13 13 13 13 13 13 12 12 12 12 11 11 11 10 10 9 9 9 9 9 8 8 9 9 9 9 9 8 8 8 7 7 7 6 6 6 5 5 4 4 3 3 3 2 2 2 2 2 2 2 2 1 1
15 15 15 14 14 14 14 14 13 13 13 13 13 13 13 13 13 13 13 12 12 12 12 11 11 11 11 11 11 10 9 9 9 8 8 8 8 8 8 9 9 9 8 8 8 8 7 7 6 6 6 5 5 4 4 4 3 3 3 2 2 2 2 2 2 2 1 1 1
15 15 14 14 14 14 13 13 13 13 13 13 13 13 13 12 12 12 12 12 12 12 11 11 11 11 10 10 10 10 10 9 8 8 8 8 8 8 8 8 8 8 8 7 7 7 7 7 6 6 5 5 4 4 4 3 3 3 3 3 3 2 2 2 2 2 1 1 0
14 14 14 13 13 13 13 13 13 13 13 13 12 12 12 12 12 12 12 11 11 11 11 10 10 10 10 10 10 10 9 9 9 8 8 7 7 7 7 7 7 7 7 6 7 7 7 7 7 6 5 5 4 4 3 3 3 3 3 3 3 2 2 2 2 1 1 1 0
14 13 13 13 13 13 13 13 12 12 12 12 12 12 12 12 12 11 11 11 11 10 10 10 10 9 9 9 9 9 9 8 8 8 8 7 7 7 7 6 6 6 6 6 6 6 7 7 7 6 5 4 4 3 3 3 3 3 3 3 3 2 2 1 1 1 1 1 1
13 13 13 13 13 12 12 12 12 12 12 12 12 12 11 11 11 11 11 10 10 10 9 9 9 9 9 8 8 8 8 7 7 7 7 7 6 6 6 6 5 5 5 5 5 6 6 6 6 6 5 4 4 4 3 3 3 3 3 2 2 2 2 1 1 1 1 1 1
13 12 12 12 12 12 12 12 12 11 11 11 11 11 11 11 10 10 10 10 9 9 9 8 8 8 8 7 7 7 7 7 6 6 6 6 6 6 5 5 5 4 4 5 5 6 6 5 5 5 5 4 4 4 3 3 3 3 2 2 2 2 2 1 1 1 1 1 1
12 12 12 12 12 11 11 11 11 11 11 11 11 10 10 10 10 9 9 9 9 8 8 8 7 7 7 7 6 6 6 6 6 6 6 6 6 5 5 4 4 4 4 4 5 5 5 5 4 4 4 4 4 3 3 3 2 2 2 2 2 2 1 1 1 1 1 1 1
12 12 12 11 11 11 11 11 10 10 10 10 10 10 10 9 9 9 8 8 8 8 7 7 7 7 6 6 6 6 6 5 5 6 6 5 5 4 4 4 4 3 4 4 5 4 4 4 4 4 4 4 4 3 3 2 2 2 2 1 1 1 1 1 1 0 0 0 0
12 11 11 11 11 11 10 10 10 10 10 9 9 9 9 9 8 8 8 8 7 7 7 7 7 6 6 6 6 5 5 5 5 5 5 5 4 4 3 3 3 3 3 4 4 4 3 3 3 4 4 4 4 3 2 2 2 2 1 1 1 1 0 0 0 0 0 0 0
11 11 11 11 10 10 10 9 9 9 9 9 9 8 8 8 8 7 7 7 7 7 7 6 6 6 6 5 5 5 5 5 5 5 5 4 4 4 3 3 3 3 3 3 3 3 3 3 3 4 4 3 3 2 2 2 2 1 1 0 0 0 -0 -0 -0 -0 -0 -0 0
11 11 10 10 10 9 9 9 9 8 8 8 8 8 8 7 7 7 7 7 6 6 6 6 6 5 5 5 5 5 5 4 4 4 4 4 4 3 3 3 2 2 2 2 2 2 2 3 3 3 3 3 3 2 2 2 1 0 0 -0 -0 -1 -1 -1 -1 -1 -1 -1 -0
10 10 10 9 9 9 8 8 8 8 8 8 7 7 7 7 6 6 6 6 6 6 6 6 5 5 5 5 5 4 4 4 4 3 4 4 4 3 3 2 2 2 2 2 2 2 2 3 3 3 3 2 2 2 2 1 1 -0 -1 -1 -1 -1 -1 -1 -1 -1 -1 -1 -1
10 10 9 9 9 8 8 8 8 7 7 7 7 7 6 6 6 6 6 6 5 5 5 5 5 5 4 4 4 4 4 3 3 3 3 3 3 3 3 2 2 1 1 2 2 2 2 2 3 3 2 2 2 2 1 1 0 -1 -1 -2 -2 -2 -2 -2 -2 -2 -2 -2 -3
10 9 9 9 8 8 8 7 7 7 7 7 6 6 6 6 6 5 5 5 5 5 5 4 4 4 4 4 3 3 3 3 3 3 3 3 3 3 2 2 1 1 1 1 1 2 2 2 2 2 2 2 2 1 1 0 -1 -1 -2 -2 -2 -2 -2 -2 -3 -3 -3 -3 -3
9 9 9 8 8 8 8 7 7 7 6 6 6 6 5 5 5 5 5 5 5 5 4 4 4 4 3 3 3 3 3 3 2 2 2 3 3 3 2 1 1 1 1 1 1 2 2 2 2 2 2 2 1 1 0 -1 -1 -2 -2 -2 -2 -2 -2 -2 -3 -3 -3 -3 -3
9 9 8 8 8 7 7 7 7 6 6 6 5 5 5 5 5 5 5 5 5 4 4 4 3 3 3 3 3 2 2 2 2 2 2 2 2 2 1 1 0 0 1 1 1 2 2 2 2 2 2 2 1 0 -0 -1 -2 -2 -2 -2 -3 -3 -3 -3 -3 -3 -3 -3 -3
8 8 8 7 7 7 7 7 6 6 6 5 5 5 5 5 5 4 4 5 4 4 4 3 3 3 3 3 2 2 2 2 2 2 2 1 1 1 1 1 0 0 0 1 1 2 2 2 2 2 2 1 1 0 -0 -1 -2 -2 -2 -3 -3 -3 -3 -3 -3 -2 -2 -2 -2
8 8 7 7 7 7 7 6 6 6 5 5 5 5 4 4 4 4 4 4 4 4 4 3 3 2 2 2 2 2 1 1 1 1 1 1 1 1 1 0 0 0 0 1 1 2 2 2 2 2 1 1 1 0 -0 -1 -2 -2 -3 -3 -3 -3 -3 -2 -2 -2 -2 -2 -2
8 8 7 7 7 7 6 6 6 5 5 5 5 4 4 4 4 4 4 3 3 3 3 3 2 2 2 2 2 1 1 1 1 1 1 1 1 1 1 1 0 0 0 1 1 1 1 1 1 1 1 1 0 0 -0 -1 -2 -2 -3 -3 -3 -3 -2 -2 -2 -2 -1 -1 -2
Height
744 745 747 749 750 752 753 755 756 758 759 760 761 763 764 766 768 769 770 771 772 773 775 776 777 779 780 782 783 784 786 787 788 789 791 792 793 795 796 797 797 798 799 800 801 802 803 804 805 806 807 808 809 809 810 811 812 812 813 814 814 815 815 816 816 817 817 817 818
743 744 746 748 750 751 753 754 756 757 758 760 761 762 764 766 767 768 770 771 772 773 774 776 777 779 780 782 783 784 785 787 788 789 791 792 793 794 795 796 797 798 799 800 801 802 802 803 804 805 807 807 808 809 810 811 811 812 812 813 814 814 815 815 816 816 817 817 817
742 744 746 747 749 751 752 754 755 756 758 759 761 763 764 765 767 768 769 771 772 773 774 776 777 778 780 782 783 784 785 786 787 789 790 792 793 794 795 796 797 798 799 800 801 801 802 803 804 805 806 807 808 809 810 810 811 811 812 813 813 814 814 815 816 816 817 817 817
741 743 745 747 748 750 751 753 754 756 758 759 761 763 764 765 767 768 769 770 772 773 774 775 777 778 780 781 782 784 785 786 787 788 790 791 792 793 794 795 796 797 798 799 800 801 802 802 803 804 805 807 807 808 809 810 810 811 812 812 813 813 814 815 815 816 816 817 817
741 742 744 746 747 749 751 752 754 755 757 759 761 762 764 765 767 768 769 770 771 772 773 775 776 778 780 781 782 784 785 786 787 788 789 791 792 793 794 795 796 797 798 799 800 801 801 802 803 804 805 806 807 808 808 809 810 811 812 812 813 813 814 815 815 816 817 817 818
740 742 744 745 747 749 751 752 753 755 757 758 760 762 763 765 766 767 768 769 771 772 773 775 776 778 780 781 782 783 784 786 787 788 789 790 791 793 794 795 795 797 798 799 800 800 801 802 802 803 804 805 807 807 808 809 810 811 812 812 813 814 814 815 816 816 817 817 818
739 742 743 745 747 749 750 752 753 755 757 758 760 761 763 764 765 767 768 769 771 772 773 774 776 777 779 781 782 783 784 785 786 787 789 790 791 792 793 794 795 797 798 799 800 800 801 801 802 803 804 805 806 807 808 809 810 811 812 812 813 814 815 816 816 817 817 818 818
739 741 743 745 747 748 750 751 753 755 756 758 759 761 762 764 765 767 768 769 770 772 773 774 776 777 779 780 782 783 784 785 786 787 788 789 791 792 793 794 795 797 797 798 799 800 801 801 802 803 804 805 806 807 809 809 810 811 812 812 814 815 816 816 817 817 818 818 819
739 741 743 745 746 748 749 751 753 754 756 757 759 761 762 763 765 766 768 769 770 771 772 774 776 777 779 780 781 782 783 785 786 787 788 789 791 792 793 794 795 796 797 798 799 799 800 801 802 803 804 805 807 808 809 809 810 811 812 813 814 815 816 817 817 818 818 819 819
738 740 743 744 746 748 749 751 753 754 756 757 759 760 762 763 765 766 768 768 770 771 772 774 776 777 779 780 781 782 783 784 786 787 788 789 790 792 792 794 795 796 797 797 798 799 800 801 802 803 805 806 807 808 809 810 810 811 812 813 814 815 816 817 818 819 819 819 820
738 740 742 744 745 747 749 751 752 754 755 757 759 760 762 763 765 766 768 769 770 771 773 774 776 777 778 780 781 782 783 784 785 787 788 789 790 791 792 793 794 795 796 797 798 799 800 801 802 804 805 807 807 808 809 810 811 811 812 814 815 816 817 818 819 819 819 820 821
738 740 742 743 745 747 749 750 752 753 755 757 758 760 762 763 765 766 768 769 770 771 773 775 776 777 778 780 781 782 783 784 785 787 788 789 790 791 792 793 794 795 796 797 798 799 800 802 803 804 805 807 808 809 810 811 811 812 813 815 816 817 818 818 819 820 820 821 821
738 739 741 743 745 747 748 750 752 753 755 757 758 760 762 763 765 766 767 769 770 772 773 775 776 777 778 779 780 782 783 784 785 787 788 789 790 791 792 793 794 795 796 797 798 799 800 802 803 804 806 807 808 810 811 812 812 813 814 816 817 817 818 819 819 820 821 822 822
737 739 741 743 745 746 748 749 751 753 755 756 758 760 762 763 765 766 768 769 771 772 774 775 777 777 778 779 780 782 783 784 786 787 787 789 790 791 792 793 794 795 797 798 799 799 800 802 803 804 806 807 809 811 812 812 813 814 815 816 817 818 818 819 820 821 822 822 823
737 739 741 743 744 746 748 749 751 753 754 756 758 760 761 763 765 766 768 769 771 772 774 775 776 777 778 779 781 782 783 784 785 786 787 788 790 791 792 793 794 796 797 798 799 800 801 802 804 805 806 808 809 811 812 813 814 815 816 817 817 818 819 820 821 822 822 823 823
737 739 741 742 744 746 747 749 751 753 754 756 758 759 761 763 765 766 768 769 771 772 774 775 776 777 779 780 781 782 783 784 785 786 787 788 790 791 792 793 795 796 797 798 800 801 802 803 805 806 807 808 810 811 813 814 815 816 817 817 818 819 820 821 822 822 823 823 824
736 738 740 742 744 746 747 749 751 752 754 756 758 759 761 763 764 766 768 769 771 772 773 775 776 777 778 780 781 782 783 784 785 786 787 788 790 791 792 794 795 796 797 799 800 801 803 804 806 807 808 809 811 812 813 814 816 817 817 818 819 820 821 822 823 823 824 824 824
736 738 740 742 744 745 747 749 750 752 754 756 757 759 761 763 764 766 768 769 770 772 773 775 776 777 778 780 781 782 783 784 786 787 788 789 790 791 793 794 796 797 798 799 801 802 803 805 806 807 809 810 811 812 814 815 816 817 818 819 820 821 822 823 823 824 824 825 825
735 738 740 742 744 745 747 749 750 752 754 756 758 759 761 763 764 766 768 769 770 772 773 774 776 777 778 779 781 782 783 785 786 787 788 789 791 792 793 795 796 797 799 800 801 802 804 805 807 808 809 810 812 813 814 815 817 817 819 820 821 822 822 823 824 824 825 825 826
734 737 740 742 743 746 747 749 751 752 754 756 758 759 761 763 764 766 767 769 771 772 773 774 776 777 778 780 781 782 784 785 786 787 789 790 791 792 794 795 797 798 799 801 802 803 804 806 807 808 810 811 812 813 815 816 817 818 819 821 821 822 823 824 824 825 826 826 827
734 736 739 741 743 745 748 749 751 753 754 756 758 759 761 763 764 766 767 769 771 772 773 774 776 777 778 780 781 783 784 786 787 788 789 791 792 793 795 796 797 799 800 801 802 804 805 807 808 809 811 812 812 814 815 816 817 819 820 821 822 822 823 824 825 826 827 827 828
734 736 738 741 743 745 747 749 751 753 754 756 758 759 761 763 764 766 768 769 771 772 774 775 776 777 778 780 781 783 785 786 787 789 790 791 793 794 795 797 797 799 800 802 803 804 806 807 809 810 811 812 813 814 816 817 818 819 820 821 822 823 824 825 826 826 827 828 829
733 736 738 741 743 744 746 748 750 752 754 756 758 759 761 763 765 767 768 770 771 773 774 776 777 778 779 780 781 782 784 786 788 789 790 792 793 795 796 797 798 799 801 802 804 805 806 807 809 810 811 812 814 815 817 817 818 819 820 821 822 823 824 825 826 827 828 829 830
733 735 738 740 742 744 746 748 750 752 753 755 757 759 761 763 765 767 769 770 772 773 775 776 777 778 779 780 782 783 784 786 787 789 791 792 794 795 797 798 799 800 802 803 804 805 806 807 809 810 812 813 814 816 817 818 819 820 821 822 822 824 825 826 827 828 829 830 831
732 734 737 739 742 744 746 748 750 752 753 755 757 759 761 763 765 767 769 771 772 773 775 776 777 779 780 781 782 783 785 786 787 789 791 793 795 796 797 799 800 802 803 805 806 807 807 808 809 811 812 814 815 817 818 819 820 821 822 822 823 824 825 827 828 829 830 831 832
731 734 736 739 741 743 746 748 750 752 753 754 757 759 761 763 765 767 769 770 772 774 775 777 778 779 781 782 783 784 786 787 788 790 792 793 795 797 798 800 802 803 805 806 807 808 809 810 810 811 812 814 816 817 819 820 821 822 822 823 824 825 826 827 829 830 831 832 833
731 733 736 738 741 743 746 748 750 752 753 754 756 759 761 763 766 767 769 771 772 774 776 777 778 780 782 782 784 785 787 788 790 791 792 794 796 798 799 801 803 805 806 807 808 809 810 811 812 812 813 815 816 817 819 820 822 823 823 824 825 826 827 828 829 831 832 833 834
731 733 735 738 741 743 746 748 750 752 753 754 756 759 761 763 766 768 769 771 772 774 776 778 779 781 782 784 785 786 787 789 791 792 794 795 797 799 801 802 804 806 807 809 809 810 811 812 813 814 815 816 817 818 819 821 822 823 824 825 826 827 828 829 830 832 832 833 834
730 733 735 737 740 743 746 748 751 752 753 754 756 759 761 764 766 768 769 771 773 775 777 778 780 782 783 785 786 787 788 790 792 793 795 796 798 800 802 803 806 807 809 810 810 811 812 813 814 815 816 817 817 819 820 822 823 824 825 826 827 828 829 830 831 832 833 834 835
730 733 735 737 739 743 746 748 751 752 753 754 757 759 762 764 766 768 770 772 773 775 777 778 780 782 784 785 787 788 790 791 793 794 795 797 799 801 803 804 806 808 810 811 811 812 813 814 815 816 817 818 818 820 821 822 823 825 826 827 828 829 830 831 832 833 834 834 835
731 733 735 737 739 743 745 748 751 752 753 755 757 760 762 764 767 768 770 772 774 776 777 779 780 782 784 786 787 789 791 792 794 795 796 797 799 801 803 805 807 809 811 812 812 813 814 816 816 817 818 819 820 821 822 823 824 825 827 828 829 830 831 832 833 834 834 835 836
731 733 736 738 740 743 746 748 751 753 754 756 758 760 763 765 767 769 771 772 774 776 778 780 782 783 786 787 789 790 792 793 795 796 797 798 799 802 804 806 808 810 812 813 813 815 816 817 817 818 819 820 821 822 823 824 825 826 828 829 830 831 832 833 834 835 835 836 837
732 734 736 738 741 743 746 749 751 753 755 757 758 761 763 765 768 770 772 774 775 777 779 780 782 784 786 788 790 791 793 794 795 797 797 798 800 802 804 807 809 812 813 814 815 816 817 817 818 819 820 821 822 822 824 825 826 827 829 830 832 832 833 834 835 835 836 837 837
732 734 736 738 741 744 747 749 752 754 756 758 760 762 763 766 768 771 773 775 776 778 780 782 783 785 787 788 790 792 793 795 796 797 798 799 800 802 804 807 811 813 814 815 816 817 817 818 819 820 821 822 822 823 825 826 827 828 830 831 832 833 834 835 836 836 837 837 837
732 734 736 739 741 744 747 750 753 755 757 759 761 763 765 767 769 771 773 775 777 778 781 783 785 787 788 790 791 792 794 796 797 798 799 800 801 802 805 808 812 814 815 816 817 817 818 819 820 820 821 822 823 824 826 827 828 830 831 832 833 834 835 836 837 837 837 838 838
731 733 736 738 741 743 747 750 753 756 758 759 762 764 766 768 771 772 773 775 777 779 781 784 786 787 790 792 793 794 795 796 797 799 800 801 802 803 806 809 812 815 816 817 818 818 819 820 820 821 822 823 824 825 827 828 829 831 832 833 834 835 836 837 837 838 838 839 839
731 733 735 738 740 742 745 749 753 756 758 760 762 764 767 770 772 773 774 775 777 779 782 784 786 788 791 792 794 796 797 797 798 800 801 802 803 804 807 810 813 816 817 818 818 819 820 821 821 822 823 824 825 826 828 829 831 832 833 834 835 836 837 838 838 839 839 840 840
731 733 734 737 739 741 744 748 753 756 758 761 763 765 768 770 772 774 775 776 777 779 782 784 787 790 792 793 795 797 798 799 799 800 802 803 804 806 807 810 814 816 818 819 819 820 821 822 822 823 824 825 826 827 828 830 831 832 834 835 836 837 838 838 839 840 840 841 842
731 733 735 738 739 741 744 748 752 755 758 761 764 766 769 771 773 775 777 777 778 779 782 784 788 790 792 794 796 797 799 801 802 802 803 805 806 807 808 811 814 816 818 819 820 821 822 823 824 825 825 826 827 828 829 830 832 833 834 835 836 837 838 839 840 841 842 842 843
732 734 736 738 740 742 744 748 752 755 758 760 764 767 769 772 773 775 777 778 779 780 782 785 788 791 793 795 796 798 800 802 803 804 805 807 808 809 810 811 814 817 819 820 821 822 823 824 825 826 827 827 828 829 830 831 832 833 835 836 837 838 839 840 841 842 842 843 844
733 735 737 739 741 742 745 749 753 755 758 761 764 767 769 772 773 776 777 779 781 782 784 786 789 792 794 796 797 799 801 803 805 806 807 808 810 811 812 812 814 817 819 821 822 823 824 825 826 827 828 828 829 830 830 831 832 834 835 837 837 838 840 841 842 842 843 843 844
Wind_Speed
25 24 24 24 23 23 22 21 21 21 22 23 23 23 23 23 22 21 21 21 22 22 21 21 21 21 20 19 18 19 19 20 21 22 22 22 22 21 21 20 19 17 16 15 15 16 16 17 17 17 16 15 15 14 13 12 12 12 11 11 9 8 8 8 8 8 8 7 7
25 24 24 23 23 23 22 21 21 21 22 23 23 23 23 23 22 21 21 21 21 21 21 21 21 21 20 19 18 18 18 19 19 20 20 20 20 20 20 20 19 17 15 15 15 16 16 16 16 16 15 14 13 12 11 11 10 10 10 10 9 8 8 8 8 8 8 8 8
25 24 24 23 23 23 22 21 21 21 21 22 22 22 22 22 21 21 21 21 21 21 21 21 21 21 20 19 17 17 17 18 18 18 18 17 18 19 20 20 18 16 15 15 16 16 16 16 15 15 14 13 12 11 11 11 10 10 10 9 9 9 9 9 9 9 9 9 9
25 24 24 23 23 23 23 22 21 21 21 21 21 21 21 21 21 20 20 21 21 20 20 20 20 20 20 19 18 17 17 17 17 17 16 16 17 18 19 18 17 16 16 16 16 15 15 14 14 13 13 13 12 12 12 12 11 10 10 9 10 11 11 11 11 11 11 11 11
25 24 24 23 24 23 23 22 22 21 21 21 21 21 21 21 20 20 20 20 20 20 20 20 20 20 20 19 18 17 17 16 16 16 16 16 17 17 17 17 17 17 16 15 15 15 14 14 13 13 13 13 13 13 13 12 12 11 10 11 12 12 13 13 14 13 13 12 11
25 24 24 23 23 23 22 21 21 21 21 21 21 21 21 21 21 20 20 20 20 20 19 19 19 19 19 19 19 18 17 17 16 16 16 16 16 16 16 17 17 16 15 14 14 14 14 14 13 13 13 13 13 13 13 12 12 11 12 14 14 15 15 15 15 14 13 12 11
24 24 23 23 23 22 22 21 21 21 21 21 21 22 22 22 21 21 20 20 20 19 19 19 18 18 19 19 19 18 18 17 16 15 15 15 15 15 16 17 16 15 14 14 14 14 13 13 13 14 14 14 13 13 13 12 12 13 14 16 16 16 17 17 15 14 13 12 12
23 23 23 23 23 22 22 22 21 21 21 21 21 21 22 22 21 21 20 19 19 19 19 19 18 18 18 19 19 19 18 17 16 15 15 15 15 15 16 16 15 15 15 15 15 15 14 14 14 14 14 14 14 14 14 13 14 15 17 18 18 18 17 17 16 14 13 13 13
23 23 23 22 22 22 22 22 22 22 22 22 21 21 21 21 21 20 20 19 19 19 19 18 17 16 17 18 19 19 18 17 16 16 15 15 16 16 16 16 15 16 16 16 16 16 16 16 15 15 15 15 15 16 16 16 16 17 19 20 20 19 18 17 15 14 14 13 14
23 23 23 22 23 23 22 22 21 21 21 21 21 21 20 20 20 20 19 19 19 18 18 17 16 15 16 17 18 18 18 17 16 16 16 16 17 17 17 16 17 17 18 18 18 18 17 17 16 16 16 16 17 18 18 18 19 20 21 21 21 20 18 16 15 14 14 14 15
23 23 23 23 23 23 22 22 22 21 21 21 21 20 20 20 20 19 19 19 18 18 17 16 15 15 16 17 18 18 18 17 17 17 17 17 17 17 17 17 18 19 19 20 19 18 18 17 17 18 18 18 19 20 20 20 20 21 22 21 20 19 19 17 15 14 14 15 15
23 23 23 23 23 23 23 23 22 22 21 21 21 20 20 20 20 19 19 18 18 17 16 14 14 15 17 18 18 18 18 18 18 18 18 18 18 17 18 18 19 20 20 21 20 19 18 18 18 20 21 21 22 22 22 21 21 21 22 21 20 19 19 18 16 15 15 15 16
23 23 23 23 23 23 23 23 23 23 22 21 21 21 20 20 20 19 19 18 17 16 15 14 14 16 17 18 19 19 19 19 18 18 18 18 18 18 19 19 20 21 21 21 21 20 19 19 20 22 23 23 23 22 22 21 21 21 21 21 20 19 18 17 16 16 15 15 16
23 23 24 24 24 24 24 24 23 23 22 22 21 21 21 20 20 19 18 17 16 15 15 15 16 17 18 19 20 19 19 19 19 19 19 19 19 20 20 21 22 22 22 22 21 21 21 21 22 23 24 24 24 22 21 20 20 20 20 20 20 19 18 17 16 15 16 16 17
23 24 24 24 25 24 24 24 23 23 23 22 22 21 21 20 20 19 17 17 16 16 16 17 18 19 19 19 20 20 19 19 19 19 19 20 20 21 22 22 23 23 23 23 23 23 23 24 24 24 24 24 24 22 21 20 20 20 19 19 19 19 18 17 16 16 16 17 17
24 24 25 25 25 25 24 24 23 23 23 23 22 22 21 21 20 18 18 17 17 17 18 19 20 20 20 20 20 20 20 19 19 20 20 21 22 23 23 24 24 24 24 24 25 25 25 25 25 25 24 24 23 22 21 21 20 20 19 19 18 18 18 18 18 18 17 17 17
24 25 25 25 25 24 24 23 23 23 24 23 23 22 21 21 20 19 18 18 19 20 20 20 21 21 21 21 20 20 20 20 20 20 21 23 24 24 24 25 25 25 25 25 26 27 27 26 25 24 23 23 23 22 22 21 21 20 20 20 20 20 20 19 19 18 18 18 18
25 25 25 25 25 24 24 24 24 24 24 24 23 22 22 21 21 20 20 20 20 21 22 22 22 22 22 22 21 21 20 20 21 22 23 24 25 25 26 26 26 26 26 26 27 27 27 26 25 24 23 23 23 23 22 21 21 21 22 22 22 22 21 20 19 19 18 19 18
26 26 25 25 25 25 24 24 24 25 25 24 23 23 22 22 22 22 22 21 21 22 23 23 23 23 23 22 22 21 21 22 23 24 25 26 26 26 27 27 27 27 27 27 27 27 26 25 24 24 24 24 24 23 23 23 23 24 24 24 24 23 22 21 20 20 19 19 19
28 27 26 26 25 25 24 24 25 25 25 24 24 23 23 23 23 23 23 23 23 23 24 24 24 24 23 23 23 22 23 23 25 26 26 27 27 27 28 28 28 28 27 27 27 26 26 25 24 24 24 25 25 24 24 25 25 26 26 25 25 24 23 22 21 21 21 20 20
28 28 27 26 26 25 25 25 25 26 26 25 25 24 24 24 24 24 24 24 24 24 25 25 25 25 24 24 24 24 24 25 26 27 28 28 28 29 29 29 29 28 27 27 26 26 25 25 25 25 25 25 25 25 26 26 27 27 27 26 25 24 23 23 22 22 22 21 21
28 28 27 27 27 27 27 27 27 27 27 26 26 26 25 25 25 25 25 25 25 25 25 25 25 25 25 25 26 26 27 27 28 28 29 29 30 30 29 29 29 28 28 27 26 26 25 26 26 26 26 25 26 26 26 27 27 27 27 26 26 25 24 23 22 22 22 21 21
29 28 28 28 28 29 29 29 29 29 29 28 27 27 27 27 26 26 26 26 26 26 26 26 26 26 26 27 27 28 29 29 30 30 30 30 31 31 30 29 29 28 28 27 26 26 26 27 27 26 25 26 26 26 26 27 27 27 26 26 25 24 23 23 22 22 22 21 20
30 30 30 30 30 30 30 30 30 30 30 30 29 29 28 28 27 27 27 27 26 26 27 26 27 27 27 28 28 29 30 30 31 31 31 31 32 32 31 30 29 29 28 27 26 26 26 27 27 26 25 26 26 27 27 26 26 26 25 25 24 23 22 22 21 21 21 21 19
32 32 32 32 32 32 32 31 31 31 31 31 30 30 29 29 29 28 28 28 27 27 28 28 28 28 29 29 29 30 30 31 31 32 32 32 32 32 31 30 29 29 28 27 27 26 25 25 25 25 26 26 27 27 27 26 25 24 23 23 22 22 22 21 20 20 20 20 20
33 33 33 33 33 33 32 32 32 32 32 32 32 31 31 30 29 29 29 29 29 29 29 29 29 29 29 30 30 30 30 30 31 32 32 32 32 31 30 30 30 29 28 28 27 25 24 23 23 24 25 26 27 27 27 26 24 22 21 21 20 20 20 20 19 19 18 18 18
34 34 34 34 34 33 33 33 33 33 33 33 33 32 31 31 30 30 30 30 30 30 29 29 29 29 30 30 30 31 31 31 31 32 32 32 32 31 30 30 29 29 28 27 26 24 23 23 23 23 25 26 27 27 26 25 23 21 20 19 18 18 18 18 18 17 17 17 17
35 35 35 35 34 33 33 33 33 33 33 33 33 32 32 31 31 31 31 31 31 31 30 30 30 30 30 30 30 31 31 31 32 32 32 32 32 31 30 30 29 28 27 26 25 24 23 23 23 24 25 26 26 26 25 24 22 20 19 18 16 15 15 15 15 15 16 16 16
35 35 36 36 35 34 33 33 32 32 33 33 33 33 32 32 32 31 31 32 32 31 31 30 30 29 29 30 30 31 32 32 32 33 33 33 32 31 31 30 29 27 26 25 24 23 23 23 24 24 25 25 25 25 24 23 21 20 18 17 15 14 14 14 14 14 14 14 14
36 36 36 36 35 35 33 33 32 33 33 33 33 33 33 32 32 31 32 32 32 31 30 30 30 30 30 31 31 32 32 32 33 33 33 33 33 32 31 30 29 27 25 24 23 23 23 24 24 25 24 24 24 24 23 22 21 19 18 17 16 15 14 14 14 13 14 14 14
35 35 35 35 35 34 33 33 33 33 33 33 33 33 32 32 31 31 32 32 31 31 30 31 31 31 31 31 32 32 33 33 33 33 33 34 33 32 31 30 29 27 24 23 23 24 24 24 25 24 24 24 23 23 22 21 20 20 19 18 17 17 16 15 15 15 14 14 15
34 35 34 34 34 34 33 33 33 33 33 33 33 33 32 32 32 31 31 31 31 31 31 31 32 32 32 32 32 33 33 33 33 33 33 34 34 33 31 30 28 26 24 23 23 24 24 25 25 24 24 23 23 23 22 21 21 21 20 20 19 18 18 18 18 17 17 16 17
34 34 34 34 34 33 33 33 33 33 33 33 33 33 33 32 32 31 31 31 31 32 32 32 33 33 33 33 34 34 33 33 33 33 34 34 34 33 31 29 27 25 24 24 24 24 25 25 25 24 24 23 23 23 22 22 22 22 21 21 20 19 19 19 19 19 19 18 18
35 35 35 35 34 34 33 33 33 32 32 32 33 33 33 33 32 31 31 31 31 32 32 33 33 33 34 34 34 34 33 33 33 34 34 34 34 33 31 29 27 25 24 24 24 25 25 25 25 24 24 23 22 22 22 22 22 22 22 22 21 20 20 19 19 19 19 19 19
36 36 36 35 35 35 34 33 33 32 33 33 33 33 33 33 33 32 32 32 32 32 32 32 33 33 33 33 33 33 34 33 33 33 33 33 33 33 32 30 28 25 24 25 25 25 25 25 25 24 23 23 22 22 22 23 24 24 24 24 23 22 21 21 20 19 19 19 19
38 37 37 37 36 36 35 34 33 33 33 33 33 33 33 32 32 33 33 34 34 34 34 33 33 33 33 32 32 32 33 34 33 33 32 32 33 33 32 31 28 26 25 25 25 25 25 24 24 23 22 22 23 23 24 25 26 26 26 26 25 24 23 22 22 21 20 20 20
38 39 38 38 38 38 37 36 35 34 34 34 34 34 33 32 32 32 33 35 36 35 35 34 34 33 33 33 32 31 32 33 33 33 32 32 33 34 34 32 29 27 25 25 25 25 24 23 22 21 21 22 23 25 26 27 28 28 28 27 26 25 24 23 22 22 21 20 20
38 39 39 38 38 38 38 37 36 35 35 34 34 34 34 34 33 32 33 35 36 36 35 35 34 33 33 34 33 32 31 32 33 33 33 33 33 34 34 33 30 28 26 25 24 24 23 21 20 19 20 22 24 26 27 29 29 29 28 27 26 25 24 23 22 21 21 20 19
37 38 38 38 37 38 38 38 37 36 36 35 34 34 34 34 32 32 32 34 35 37 37 36 35 34 34 34 33 32 31 31 32 33 33 33 33 33 34 33 31 28 26 24 23 22 21 20 19 19 20 22 24 26 28 29 29 28 27 27 26 24 23 22 21 20 19 18 17
37 38 38 37 37 38 38 38 37 37 36 36 35 34 34 33 32 32 32 33 35 36 37 37 36 35 34 34 33 33 32 31 31 32 32 32 32 32 33 32 31 28 26 24 22 21 20 19 19 19 20 22 24 26 27 28 29 28 27 26 25 23 22 21 20 19 18 16 15
37 38 38 37 38 38 38 38 37 37 37 37 36 35 34 34 33 33 33 33 34 35 36 36 36 35 34 33 33 33 33 32 31 31 31 31 31 31 32 31 30 28 26 23 21 20 19 19 18 19 20 22 24 25 27 28 29 28 26 25 23 22 21 20 19 18 17 15 14
Wind_Direction
192 192 192 192 191 190 189 190 190 189 187 185 185 185 187 188 189 191 193 195 197 197 198 198 197 196 196 198 199 200 201 203 205 206 208 210 211 213 214 217 221 225 229 232 231 227 224 223 226 232 236 238 238 237 236 235 234 234 235 236 235 233 229 222 217 217 218 215 213
193 192 192 191 191 190 189 188 189 189 188 188 188 188 189 190 190 192 194 196 198 199 199 198 197 195 194 195 197 198 199 201 203 205 207 210 213 215 216 216 219 223 228 232 229 225 221 221 223 226 229 230 230 227 225 226 225 225 226 227 224 218 210 202 200 200 199 193 188
193 192 191 190 189 188 186 187 187 187 188 188 189 191 191 191 192 193 195 197 199 200 200 198 197 195 193 192 194 196 198 200 201 203 206 211 216 217 217 217 218 222 227 228 225 221 217 216 217 218 220 221 220 217 214 214 215 215 214 212 209 202 193 185 183 182 177 169 165
192 191 190 189 188 187 186 186 186 186 187 187 188 190 192 193 193 194 196 197 199 200 200 199 197 195 192 191 191 193 195 198 199 201 205 212 217 219 219 219 219 220 222 222 218 214 209 205 204 206 210 213 213 211 207 204 204 202 198 194 190 185 178 172 169 166 159 151 147
192 191 190 189 189 187 187 186 186 185 185 186 186 188 190 192 193 195 196 197 198 200 201 200 197 195 192 191 190 191 193 195 198 202 207 212 216 218 219 218 216 215 214 213 210 206 200 195 193 196 201 205 206 203 199 197 193 187 180 175 171 168 164 159 155 152 148 141 136
191 190 190 189 188 187 186 186 186 185 185 185 185 186 188 190 192 194 196 197 198 200 200 199 197 194 192 191 190 191 191 194 198 203 208 211 213 214 214 215 212 208 205 203 202 199 194 189 186 188 192 195 193 191 190 189 183 175 166 158 155 154 152 147 144 142 140 134 127
190 189 188 188 187 185 185 185 185 185 185 185 186 187 188 189 191 194 196 198 199 199 198 197 196 193 191 190 190 191 192 194 198 203 206 208 207 208 209 209 205 200 197 196 194 192 188 184 179 179 182 183 177 174 175 177 175 166 155 146 145 145 143 139 138 136 132 125 117
189 188 187 186 185 184 184 184 184 183 184 185 187 188 189 190 191 194 196 198 198 198 198 196 195 193 191 190 190 191 193 195 197 199 202 202 200 202 203 201 195 191 191 192 189 185 182 179 175 172 170 168 162 159 162 167 165 158 149 141 138 138 137 134 132 129 124 117 110
187 186 186 185 184 184 183 184 184 184 184 185 187 189 190 191 192 194 195 196 198 199 198 195 193 191 190 189 189 191 193 194 194 194 195 194 194 195 194 189 184 183 184 186 184 182 178 173 168 164 161 158 154 153 156 160 157 150 143 137 134 132 131 129 127 123 118 111 107
184 183 183 182 182 182 182 183 184 185 185 186 187 189 191 192 193 194 196 197 198 198 196 193 189 187 185 186 188 190 191 191 190 189 188 187 188 188 185 180 178 178 178 179 179 177 173 167 159 154 153 153 151 151 153 155 151 144 138 134 132 130 127 125 122 117 112 107 104
182 181 180 179 179 180 180 180 181 183 185 186 187 188 189 191 192 194 197 198 197 194 191 189 184 181 180 183 186 187 188 187 186 185 183 182 183 181 178 176 176 176 174 174 173 172 167 160 152 148 147 148 148 147 147 148 145 139 134 132 131 128 124 121 117 112 108 105 103
180 179 179 178 178 178 178 178 179 181 183 184 185 186 187 189 191 193 195 195 193 189 186 182 178 175 177 179 182 184 183 183 182 180 177 175 174 173 172 173 173 172 170 169 169 167 161 155 150 146 144 143 143 142 141 142 139 135 132 130 129 126 122 119 114 110 106 104 103
178 176 176 176 176 176 176 176 177 178 181 182 183 183 185 187 190 192 193 191 187 182 176 173 172 173 175 178 180 180 180 179 177 174 170 167 167 168 169 168 167 165 162 161 162 160 156 151 149 145 142 139 138 137 137 138 136 134 132 130 128 124 120 116 112 110 107 105 102
175 174 174 174 174 174 174 174 174 176 178 179 180 180 182 184 187 189 188 184 179 173 167 166 168 172 175 178 179 178 176 174 171 167 164 164 166 167 165 162 160 157 154 152 153 153 150 147 146 144 140 137 135 135 136 135 134 133 131 129 125 120 116 113 112 111 109 105 102
172 172 172 172 171 171 171 171 171 173 174 175 176 177 178 179 181 182 180 175 170 165 163 163 167 171 175 176 176 174 172 170 169 167 165 164 164 163 160 156 154 151 148 146 145 145 145 144 143 141 139 137 135 135 134 133 131 130 127 124 119 116 114 113 112 111 108 104 101
170 170 170 169 169 169 169 169 169 169 170 171 172 173 173 173 174 174 172 167 163 162 162 164 167 169 171 172 172 170 169 169 169 167 164 161 159 156 154 151 149 148 147 145 142 141 141 141 141 140 139 137 136 135 133 131 128 125 122 118 115 114 114 114 112 109 105 101 97
168 168 168 169 170 169 168 167 166 166 167 168 169 169 169 168 168 167 166 163 161 161 163 165 166 167 167 167 168 169 168 168 167 164 160 156 153 151 149 149 148 148 146 144 141 139 138 139 139 139 138 137 135 133 131 128 125 122 119 117 115 115 114 112 110 106 102 97 93
167 168 169 169 169 168 166 165 164 164 164 164 165 165 165 165 163 163 162 163 163 162 162 163 165 165 164 163 164 166 167 164 161 157 153 151 150 149 148 147 146 146 144 143 140 139 138 138 138 138 137 135 133 131 129 127 124 121 119 118 116 115 113 110 106 102 98 94 91
167 168 169 168 167 165 164 163 162 161 161 161 161 162 162 162 162 161 161 162 164 164 163 162 163 163 163 161 161 161 161 159 155 151 149 148 147 147 146 145 144 143 143 142 142 141 141 140 139 138 136 134 131 130 128 126 124 122 120 118 116 114 111 107 102 98 94 92 90
166 167 167 167 166 163 161 160 159 158 158 158 159 159 159 160 160 160 160 161 164 165 165 162 160 159 158 158 156 153 152 152 149 147 145 145 145 144 144 143 143 143 143 143 143 142 141 140 139 137 135 133 131 129 128 126 124 122 120 118 115 112 108 104 99 95 92 89 87
164 165 165 164 163 160 158 157 156 156 155 156 156 157 157 158 159 159 160 161 163 164 163 161 158 155 153 152 149 146 144 145 144 143 142 142 142 142 143 144 144 144 143 143 142 141 139 138 136 135 134 132 130 129 127 126 125 123 120 117 114 109 105 102 97 94 90 87 84
161 161 160 159 157 156 155 155 154 154 154 154 155 156 156 157 157 158 159 160 160 160 158 156 154 152 151 150 147 144 141 141 140 140 140 141 140 141 143 144 145 144 144 143 143 141 139 137 136 134 133 130 129 128 128 127 125 123 120 116 113 109 106 102 98 95 91 87 83
157 156 155 154 153 152 152 152 152 153 153 153 154 155 155 155 155 156 156 156 155 153 151 150 149 149 150 150 149 146 143 141 139 140 141 141 142 142 143 144 145 145 144 144 144 142 140 137 135 133 131 130 129 129 128 127 126 123 120 117 114 110 107 104 101 99 96 92 88
152 151 150 150 150 150 150 150 151 151 151 152 153 153 153 152 152 152 152 151 150 148 147 146 146 147 148 149 149 148 146 143 141 140 140 142 143 143 144 144 145 144 144 144 143 141 138 135 134 132 131 130 129 129 128 127 125 123 120 117 115 112 109 107 105 103 101 100 97
149 148 147 147 148 148 149 149 149 149 150 150 151 151 150 149 149 148 147 147 146 146 146 145 145 146 146 146 147 148 147 146 143 142 141 141 142 143 143 142 142 141 140 140 139 137 135 133 132 132 131 130 130 129 128 126 124 121 119 117 115 113 112 110 109 108 107 107 108
146 145 145 146 147 148 148 148 149 149 148 148 148 147 147 147 147 147 146 145 145 145 145 144 144 144 145 144 144 144 144 144 144 143 142 140 139 139 139 138 137 136 136 135 135 134 133 132 132 131 131 131 130 129 127 125 123 120 118 116 115 115 115 115 115 115 115 116 117
145 144 145 146 147 146 146 147 147 147 146 145 145 145 145 146 146 146 145 143 143 143 143 142 142 142 142 142 142 141 140 140 141 141 141 140 137 135 134 133 132 132 133 133 134 133 132 132 132 132 131 131 130 128 126 124 122 119 117 116 115 116 118 120 122 123 123 124 124
144 144 145 145 145 144 145 145 145 144 143 143 143 144 145 146 145 144 143 142 142 141 140 138 139 140 140 139 138 138 138 138 138 138 137 137 135 132 130 129 129 129 131 133 133 133 133 133 133 132 131 130 128 126 124 122 121 118 117 115 116 117 120 123 127 129 130 131 131
144 144 144 143 142 142 143 143 142 142 142 142 142 143 144 144 144 143 142 141 141 139 137 136 138 138 137 135 135 136 136 135 135 135 134 133 131 129 128 127 127 128 131 133 134 134 134 134 133 132 131 129 127 125 123 121 120 118 115 114 115 117 121 125 130 134 136 137 136
143 143 142 141 140 140 140 141 141 141 141 140 141 142 142 142 141 140 140 140 139 138 137 138 137 136 134 134 134 133 132 132 132 132 131 130 127 126 126 126 127 129 131 133 133 133 134 134 133 132 131 129 126 125 123 121 118 116 113 112 113 115 119 124 130 134 137 139 138
141 141 140 138 137 137 138 140 140 140 139 138 139 140 140 139 138 139 139 139 138 138 138 138 136 134 133 133 132 131 130 130 130 130 130 128 126 125 125 126 127 129 131 132 133 133 134 134 133 132 131 129 126 124 121 119 116 113 111 111 113 114 117 121 124 127 130 133 132
139 138 137 135 134 135 136 138 138 138 138 138 138 138 138 137 137 137 138 138 137 136 135 135 133 132 131 131 131 130 130 129 129 129 129 128 126 125 125 125 126 128 130 132 133 133 134 134 133 132 131 128 125 122 120 116 113 111 111 111 112 114 116 117 117 118 120 121 120
137 136 135 133 132 133 134 136 136 136 136 136 137 137 136 135 135 134 134 134 134 133 133 133 132 131 131 130 129 129 129 129 129 129 129 128 127 125 124 123 124 127 130 132 133 133 134 134 133 132 131 128 125 121 118 115 112 111 110 110 110 111 111 111 112 111 111 110 108
136 135 134 133 132 132 133 134 135 135 135 135 134 135 134 134 132 131 131 131 131 131 132 132 132 131 131 131 130 129 128 128 128 128 128 128 127 125 123 122 124 127 131 133 134 134 135 134 134 133 130 127 124 120 117 114 112 110 109 108 107 106 105 105 105 104 104 103 100
138 136 135 134 133 133 133 134 134 134 134 132 131 132 132 132 132 131 131 130 130 130 129 130 130 130 130 130 130 129 128 127 127 127 127 127 126 124 123 123 125 129 133 134 134 135 135 135 135 133 130 126 122 119 116 113 110 108 106 104 103 101 100 99 99 99 99 98 96
141 139 137 136 135 135 135 134 134 134 132 131 130 130 130 131 131 131 132 132 131 129 128 128 128 128 127 127 127 127 128 128 127 127 127 127 126 124 123 124 127 130 133 135 136 136 137 136 135 133 130 126 122 119 115 112 109 107 104 102 101 99 97 96 96 95 96 96 96
143 141 140 138 137 136 136 136 135 134 132 131 130 130 130 130 130 131 132 133 131 129 128 128 127 126 126 126 126 126 128 129 128 127 127 127 127 126 125 126 128 131 134 136 137 137 137 136 135 133 130 126 123 119 116 112 110 107 105 103 100 98 96 94 92 91 92 93 95
143 142 140 139 138 137 136 136 136 134 132 131 131 131 131 131 130 131 132 133 131 129 128 128 127 127 127 128 127 127 127 128 128 128 127 127 128 128 128 128 129 132 134 136 137 137 136 135 134 133 131 128 125 122 118 115 112 109 107 104 102 99 97 94 92 90 89 90 93
142 141 140 138 137 136 135 135 135 135 133 132 131 131 131 131 131 131 132 134 132 131 129 128 127 127 128 128 127 126 126 126 128 128 128 128 129 130 130 129 130 132 135 136 137 136 134 133 133 132 131 130 127 124 121 117 114 111 109 107 106 104 102 100 98 97 94 93 93
141 140 139 138 136 135 134 134 134 135 134 133 132 132 132 131 131 131 132 132 131 131 129 128 128 128 128 128 127 125 125 125 126 127 128 128 129 131 131 130 130 132 134 136 135 134 133 133 134 134 133 132 129 126 122 118 115 113 112 111 110 110 109 108 107 106 105 101 97
140 140 139 138 137 136 135 134 134 135 135 134 134 133 133 132 132 131 131 130 129 128 128 127 128 128 128 127 126 125 124 123 124 126 127 128 129 130 131 131 131 132 133 134 134 134 134 134 136 136 135 133 131 127 124 120 117 116 116 116 116 116 116 116 115 114 113 110 107